RH
33 36 40 48 58 66 71 73 77 80 80 84 88 85 82 76 73 36 21 16 12 10 10 9 8 8 8
34 36 40 47 55 64 66 70 77 82 91 90 85 86 79 72 48 19 13 12 10 10 10 10 9 8 7
36 38 41 45 52 59 63 68 81 92 88 83 87 79 78 56 18 13 11 11 11 10 10 10 8 7 6
40 42 44 47 51 58 62 68 93 80 81 81 83 84 31 17 12 11 10 10 11 10 9 8 7 5 4
45 47 48 52 56 58 65 97 84 85 84 81 74 36 21 11 10 10 10 11 10 9 8 6 5 4 4
50 52 55 58 60 78 96 89 87 85 84 75 58 12 11 9 9 10 10 11 10 8 6 4 4 5 6
55 58 61 63 97 97 95 89 91 91 88 29 26 23 10 9 10 11 11 10 8 5 4 4 4 6 8
63 65 67 97 96 96 94 95 96 92 54 62 19 10 9 10 11 11 9 7 5 4 4 5 7 10 14
69 71 96 96 93 94 95 97 51 66 42 19 22 11 10 11 11 9 6 5 5 6 7 9 13 15 17
94 97 92 96 93 95 92 58 89 38 40 13 9 12 14 12 8 6 6 7 8 9 12 17 21 22 22
97 92 95 97 98 93 89 89 78 43 16 10 12 13 11 9 6 6 7 9 12 14 18 23 28 28 22
96 94 96 95 94 95 89 86 59 15 9 12 13 13 8 4 4 8 10 12 14 17 19 24 27 22 22
96 98 100 100 96 93 78 20 9 8 8 10 10 6 4 5 6 10 9 13 19 21 23 28 23 20 20
97 98 98 97 87 36 14 9 8 8 8 8 6 4 7 10 11 12 17 20 24 30 30 25 20 23 23
97 97 93 56 26 12 9 8 8 8 7 6 5 8 12 15 16 20 25 33 37 34 28 20 19 19 21
96 86 68 46 12 9 8 8 8 7 6 6 11 14 16 22 25 28 34 38 38 33 23 19 13 17 24
83 45 25 12 10 9 8 8 7 7 7 13 16 16 16 20 32 44 40 44 37 26 24 20 17 18 30
Wind_Speed
28 27 28 28 27 28 29 32 35 36 37 42 43 41 42 39 34 34 34 34 36 36 37 38 39 39 41
29 28 28 28 30 31 33 36 34 36 42 42 43 41 36 34 35 35 34 36 37 38 39 41 42 43 44
30 29 30 31 32 34 35 35 35 42 43 43 40 35 33 35 35 35 35 37 38 39 41 43 44 46 47
30 30 31 33 35 35 34 35 42 42 43 39 33 33 34 34 35 35 36 38 40 42 44 46 47 48 47
31 33 35 36 35 35 34 42 42 40 36 33 32 34 34 35 35 36 38 41 43 45 48 48 49 48 47
36 36 36 34 33 35 40 39 39 35 30 32 33 33 34 36 36 37 39 42 44 47 49 49 49 47 47
38 35 33 34 40 37 36 37 33 30 30 29 31 33 34 36 36 38 40 43 47 48 48 49 50 50 49
34 34 35 38 36 34 35 32 30 29 30 30 31 32 31 35 36 39 41 44 46 48 49 49 48 47 47
36 39 38 32 32 35 31 27 25 28 30 31 33 34 31 33 35 38 40 43 43 45 46 46 46 47 47
45 38 32 30 33 31 27 26 26 27 29 33 32 35 36 33 33 37 38 40 41 43 44 44 44 47 48
34 30 28 32 31 29 29 24 23 28 33 33 33 36 38 42 35 35 38 37 39 39 40 41 41 43 47
29 27 30 30 28 25 23 20 23 30 33 34 35 37 40 41 39 37 39 39 42 43 44 43 40 41 41
28 29 28 25 23 20 18 25 28 29 31 34 36 39 39 38 41 40 46 43 43 45 45 43 41 41 42
27 27 24 21 16 19 25 25 26 28 31 35 38 37 36 36 39 41 41 44 44 43 44 42 40 39 40
25 24 19 15 21 24 25 26 27 28 31 36 38 37 36 36 36 38 40 40 41 40 41 42 40 39 40
22 16 15 19 24 24 25 25 27 29 32 33 34 34 35 32 35 37 38 39 39 37 38 43 41 36 35
13 17 20 23 24 24 26 27 28 30 31 32 33 34 34 33 27 31 37 36 36 34 36 40 40 35 32
Wind_Direction
248 253 257 262 267 272 277 281 283 293 297 302 302 303 304 305 306 304 306 306 305 306 307 306 306 308 306
251 256 261 264 267 270 275 278 284 291 300 300 303 303 304 303 303 306 307 307 308 307 308 307 308 306 305
254 257 259 263 267 271 274 281 289 297 299 301 301 300 302 302 303 305 307 307 306 306 306 306 307 307 308
254 259 262 264 268 272 279 286 292 296 299 297 297 299 299 301 303 304 305 305 306 306 307 310 309 309 309
258 260 261 263 270 277 281 289 293 295 293 294 296 296 301 301 303 306 306 305 308 310 311 311 311 310 308
252 256 261 268 273 280 287 289 290 289 291 292 292 296 299 300 303 304 305 307 308 309 310 311 309 308 309
250 258 264 267 282 281 283 285 284 283 284 286 291 295 298 299 303 305 305 309 310 311 310 308 310 311 311
258 260 262 281 278 280 284 278 276 280 282 284 288 292 297 300 305 306 309 310 310 310 310 312 311 310 310
257 259 273 275 277 285 276 272 276 279 283 289 293 296 301 302 307 310 310 309 310 310 310 310 310 310 310
260 268 268 273 282 276 271 268 275 282 285 289 295 298 302 308 313 312 310 309 311 310 310 311 313 311 311
262 261 267 276 273 267 269 271 279 289 291 294 298 303 308 310 313 311 308 311 309 309 312 313 314 313 312
254 260 266 269 269 264 265 279 288 285 290 295 302 307 308 310 313 314 313 315 316 316 317 317 320 317 315
255 261 265 258 254 258 278 278 281 287 292 300 305 306 309 313 314 317 317 319 319 319 320 321 322 320 317
262 259 248 246 256 270 271 278 285 293 300 302 304 309 314 316 316 317 316 319 320 322 320 321 322 324 322
250 243 243 261 269 274 281 287 294 299 304 306 308 312 315 316 317 317 318 318 318 321 319 319 325 327 324
235 239 255 267 273 279 285 291 296 301 305 305 306 311 312 315 316 315 313 315 318 320 319 320 324 330 329
241 257 264 270 277 283 289 294 301 306 304 304 306 308 310 312 317 315 313 315 316 320 322 321 326 332 332